UFO 11 (USA 174)

Last updated on Tue Sep 16 2025 00:02:45 GMT+0000 (Coordinated Universal Time)

1 28117U 03057A 25258.59843037 -.00000119 00000+0 00000+0 0 9995 2 28117 8.6692 35.0713 0003859 158.2879 92.5211 1.00271805 79691
UTC large
Height (km)
Speed (km/s)
/
Latitude / Longitude
Inclination (degrees)
Orbital Period (minutes)
Azimuth
Elevation
Range (km)
Doppler Factor

Next 0 passes for location: London (51.5072 / 0.1276)

Sorry there are no passes over London.